Hourly Data Report for July 13, 2021

LONDON CS
ONTARIO
Current Station Operator: ECCC - MSC

43°02'00.000" N
81°09'00.000" W
278.00 m
6144478
71622
WSN

Download Data

Hourly Data (July 2021)
Hourly Data Report for July 13, 2021
TIME
LST
Temp Definition
°C
Dew Point Definition
°C
Rel Hum Definition
%
Precip. Amount Definition
mm

Wind Dir Definition
10's deg

Wind Spd Definition
km/h
Visibility Definition
km
Stn Press Definition
kPa
Hmdx Definition


Wind Chill Definition


Weather Definition


00:00 18.3 17.4 94 0.0       98.70     LegendNANA
01:00 18.3 17.4 95 0.0       98.66     LegendNANA
02:00 18.4 17.5 94 0.0       98.64     LegendNANA
03:00 18.7 17.8 95 0.0       98.63     LegendNANA
04:00 19.0 18.1 95 0.0       98.62     LegendNANA
05:00 18.8 18.5 98 0.0       98.63     LegendNANA
06:00 19.2 19.0 99 0.0       98.65     LegendNANA
07:00 20.0 19.8 99 0.0       98.59 27   LegendNANA
08:00 21.0 20.5 97 0.0       98.63 29   LegendNANA
09:00 22.7 21.3 92 0.0       98.61 31   LegendNANA
10:00 24.1 21.6 86 0.0       98.59 33   LegendNANA
11:00 24.5 21.2 82 0.0       98.56 33   LegendNANA
12:00 24.6 21.6 84 0.0       98.51 34   LegendNANA
13:00 24.7 21.1 81 0.0       98.46 33   LegendNANA
14:00 26.2 21.7 76 0.0       98.42 35   LegendNANA
15:00 25.8 20.3 72 0.0       98.45 34   LegendNANA
16:00 25.5 20.4 74 0.0       98.41 33   LegendNANA
17:00 25.0 19.9 73 0.0       98.38 32   LegendNANA
18:00 25.1 20.1 74 0.0       98.38 33   LegendNANA
19:00 24.2 20.1 78 0.0       98.41 32   LegendNANA
20:00 22.5 20.5 88 0.0       98.37 30   LegendNANA
21:00 19.9 18.6 92 4.3       98.40     LegendNANA
22:00 19.7 19.0 96 0.2       98.43     LegendNANA
23:00 20.3 19.5 95 0.0       98.44 27   LegendNANA

Notes on Data Quality.

Legend

  • E = Estimated
  • M = Missing
  • NA = Not Available*
  • [empty] = Indicates an unobserved value
Date modified: